This demonstration page uses our WeatherBlox Daily Observations layout. Learn more.

Hourly Observations for October 21, 2019

Temp ( °F °C ) Dew Point ( °F °C ) Humidity (%) Winds ( mph kmh ) Pressure ( in mb ) Visibility ( mi km ) Precip ( " mm )
12:15 am 00:15 Cloudy 52 11 50 10 94 94 N 7 11 30.03 1017 10 16.09344 0 0
12:35 am 00:35 Cloudy 52 11 50 10 94 94 N 6 9 30.03 1017 10 16.09344 0 0
12:55 am 00:55 Cloudy 52 11 52 11 100 100 NNW 7 11 30.03 1017 7 11.265408 0 0
1:15 am 01:15 Cloudy 52 11 50 10 94 94 NNW 8 13 30.03 1017 10 16.09344 0 0
1:35 am 01:35 Cloudy 52 11 50 10 94 94 N 9 15 30.03 1017 10 16.09344 0 0
1:55 am 01:55 Cloudy 52 11 50 10 94 94 N 7 11 30.03 1017 10 16.09344 0 0
2:15 am 02:15 Cloudy 52 11 50 10 94 94 NNE 7 11 30.03 1017 10 16.09344 0 0
2:35 am 02:35 Cloudy 52 11 50 10 94 94 N 7 11 30.03 1017 10 16.09344 0 0
2:55 am 02:55 Cloudy 52 11 50 10 94 94 N 6 9 30.03 1017 10 16.09344 0 0
3:15 am 03:15 Cloudy 52 11 50 10 94 94 N 5 7 30.03 1017 10 16.09344 0 0
3:35 am 03:35 Cloudy 52 11 50 10 94 94 N 6 9 30.03 1017 10 16.09344 0 0
3:55 am 03:55 Cloudy 50 10 50 10 100 100 N 7 11 30.09 1019 10 16.09344 0 0
4:15 am 04:15 Cloudy 52 11 50 10 94 94 N 7 11 30.06 1018 10 16.09344 0 0
4:35 am 04:35 Cloudy 52 11 50 10 94 94 NNE 5 7 30.06 1018 10 16.09344 0 0
4:55 am 04:55 Cloudy 52 11 50 10 94 94 N 8 13 30.06 1018 10 16.09344 0 0
5:15 am 05:15 Cloudy 52 11 50 10 94 94 N 10 17 30.06 1018 10 16.09344 0 0
5:35 am 05:35 Cloudy 52 11 50 10 94 94 N 6 9 30.06 1018 10 16.09344 0 0
5:55 am 05:55 Cloudy 52 11 50 10 94 94 N 7 11 30.06 1018 10 16.09344 0 0
6:15 am 06:15 Cloudy 52 11 50 10 94 94 NNE 8 13 30.06 1018 10 16.09344 0 0
6:35 am 06:35 Cloudy 52 11 50 10 94 94 N 5 7 30.06 1018 10 16.09344 0 0
6:55 am 06:55 Cloudy 52 11 50 10 94 94 N 7 11 30.09 1019 10 16.09344 0 0
7:15 am 07:15 Cloudy 52 11 50 10 94 94 N 7 11 30.09 1019 10 16.09344 0 0
7:35 am 07:35 Cloudy 52 11 50 10 94 94 undefined N/A 30.09 1019 10 16.09344 0 0
7:55 am 07:55 Cloudy 52 11 50 10 94 94 N 5 7 30.09 1019 10 16.09344 0 0
8:15 am 08:15 Cloudy 52 11 50 10 94 94 NNE 3 6 30.09 1019 10 16.09344 0 0
8:35 am 08:35 Cloudy 52 11 50 10 94 94 N 6 9 30.12 1020 7 11.265408 0 0
8:55 am 08:55 Cloudy 52 11 50 10 94 94 N 5 7 30.12 1020 10 16.09344 0 0
9:15 am 09:15 Cloudy 52 11 50 10 94 94 NNE 3 6 30.12 1020 10 16.09344 0 0
9:35 am 09:35 Cloudy 54 12 50 10 88 88 N 6 9 30.12 1020 10 16.09344 0 0
9:55 am 09:55 Cloudy 54 12 50 10 88 88 NE 8 13 30.12 1020 10 16.09344 0 0
10:15 am 10:15 Cloudy 54 12 50 10 88 88 NE 6 9 30.12 1020 10 16.09344 0 0
10:35 am 10:35 Cloudy 54 12 50 10 88 88 ENE 6 9 30.15 1021 10 16.09344 0 0
10:55 am 10:55 Cloudy 55 13 50 10 82 82 NE 5 7 30.12 1020 10 16.09344 0 0
11:15 am 11:15 Cloudy 55 13 50 10 82 82 ENE 5 7 30.12 1020 10 16.09344 0 0
11:35 am 11:35 Mostly Cloudy 55 13 50 10 82 82 Calm 30.12 1020 10 16.09344 0 0
11:55 am 11:55 Mostly Cloudy 57 14 50 10 77 77 Calm 30.12 1020 10 16.09344 0 0
12:15 pm 12:15 Partly Cloudy 59 15 50 10 72 72 Calm 30.12 1020 10 16.09344 0 0
12:35 pm 12:35 Sunny 59 15 52 11 77 77 NW 5 7 30.12 1020 10 16.09344 0 0
12:55 pm 12:55 Partly Cloudy 61 16 52 11 72 72 Calm 30.12 1020 10 16.09344 0 0
1:15 pm 13:15 Partly Cloudy 61 16 52 11 72 72 Calm 30.09 1019 10 16.09344 0 0
1:35 pm 13:35 Sunny 63 17 52 11 68 68 Calm 30.09 1019 10 16.09344 0 0
1:55 pm 13:55 Sunny 64 18 52 11 64 64 Calm 30.09 1019 10 16.09344 0 0
2:15 pm 14:15 Sunny 64 18 52 11 64 64 Calm 30.06 1018 10 16.09344 0 0
2:35 pm 14:35 Sunny 64 18 52 11 64 64 Calm 30.06 1018 10 16.09344 0 0
2:55 pm 14:55 Sunny 64 18 52 11 64 64 Calm 30.06 1018 10 16.09344 0 0
3:15 pm 15:15 Sunny 64 18 52 11 64 64 Calm 30.06 1018 10 16.09344 0 0
3:35 pm 15:35 Sunny 66 19 52 11 60 60 Calm 30.06 1018 10 16.09344 0 0
3:55 pm 15:55 Sunny 66 19 52 11 60 60 Calm 30.06 1018 10 16.09344 0 0
4:15 pm 16:15 Sunny 68 20 52 11 56 56 SSE 7 11 30.06 1018 10 16.09344 0 0
4:35 pm 16:35 Sunny 68 20 52 11 56 56 SSE 5 7 30.06 1018 10 16.09344 0 0
4:55 pm 16:55 Sunny 66 19 52 11 60 60 S 3 6 30.03 1017 10 16.09344 0 0
5:15 pm 17:15 Sunny 66 19 52 11 60 60 SSE 3 6 30.06 1018 10 16.09344 0 0
5:35 pm 17:35 Sunny 64 18 52 11 64 64 Calm 30.06 1018 10 16.09344 0 0
5:55 pm 17:55 Sunny 64 18 52 11 64 64 SSE 3 6 30.06 1018 10 16.09344 0 0
6:15 pm 18:15 Sunny 64 18 52 11 64 64 SSE 5 7 30.06 1018 10 16.09344 0 0
6:35 pm 18:35 Clear 63 17 52 11 68 68 SE 3 6 30.06 1018 10 16.09344 0 0
6:55 pm 18:55 Clear 63 17 52 11 68 68 SSE 7 11 30.06 1018 10 16.09344 0 0
7:15 pm 19:15 Clear 61 16 52 11 72 72 SSE 3 6 30.06 1018 10 16.09344 0 0
7:35 pm 19:35 Clear 61 16 54 12 77 77 SSE 6 9 30.06 1018 10 16.09344 0 0
7:55 pm 19:55 Clear 61 16 54 12 77 77 S 7 11 30.06 1018 10 16.09344 0 0
8:15 pm 20:15 Clear 59 15 54 12 82 82 SSW 7 11 30.06 1018 10 16.09344 0 0
8:35 pm 20:35 Clear 59 15 54 12 82 82 ESE 7 11 30.09 1019 10 16.09344 0 0
8:55 pm 20:55 Clear 59 15 54 12 82 82 Calm 30.09 1019 10 16.09344 0 0
9:15 pm 21:15 Clear 59 15 54 12 82 82 SSE 5 7 30.09 1019 10 16.09344 0 0
9:35 pm 21:35 Clear 59 15 54 12 82 82 S 7 11 30.09 1019 10 16.09344 0 0
9:55 pm 21:55 Clear 59 15 54 12 82 82 S 8 13 30.09 1019 10 16.09344 0 0
10:15 pm 22:15 Clear 57 14 54 12 88 88 S 5 7 30.09 1019 10 16.09344 0 0
10:35 pm 22:35 Clear 59 15 54 12 82 82 SSE 7 11 30.06 1018 10 16.09344 0 0
10:55 pm 22:55 Clear 57 14 54 12 88 88 S 8 13 30.06 1018 10 16.09344 0 0
11:15 pm 23:15 Clear 57 14 54 12 88 88 SSW 7 11 30.09 1019 10 16.09344 0 0
11:35 pm 23:35 Partly Cloudy 55 13 54 12 94 94 SSW 6 9 30.09 1019 10 16.09344 0 0
11:55 pm 23:55 Mostly Cloudy 55 13 54 12 94 94 S 5 7 30.09 1019 10 16.09344 0 0

Powered by AerisWeather